GAP2921 RPLL-RPLK

Flight info

Callsign GAP2921
Flight time 0h 34m
Altitude 23000
Route TIMON4V TIMON W15 RAGAY RAGAY1B
Aircraft A320/M-SDE3FGHIRWY/LB1

Departure

Time 2026-04-21 05:05
Airport Ninoy Aquino International Airport (RPLL)

Arrival

Time 2026-04-21 05:39
Airport Bicol International Airport (RPLK)
Time Latitude Longitude Altitude Speed Heading
2026-04-21 04:49 14.51087 121.01356 82 ft 0 kts 219°
2026-04-21 04:54 14.51088 121.01356 82 ft 0 kts 219°
2026-04-21 04:55 14.51098 121.01365 82 ft 2 kts 219°
2026-04-21 04:55 14.51110 121.01375 82 ft 2 kts 219°
2026-04-21 04:55 14.51122 121.01385 82 ft 2 kts 219°
2026-04-21 04:55 14.51133 121.01396 82 ft 2 kts 251°
2026-04-21 04:56 14.51133 121.01414 82 ft 2 kts 292°
2026-04-21 04:56 14.51128 121.01424 82 ft 1 kts 317°
2026-04-21 04:56 14.51124 121.01427 82 ft 0 kts 314°
2026-04-21 04:58 14.51131 121.01420 82 ft 2 kts 315°
2026-04-21 04:58 14.51153 121.01396 82 ft 5 kts 313°
2026-04-21 04:58 14.51196 121.01364 82 ft 8 kts 356°
2026-04-21 04:59 14.51253 121.01402 82 ft 9 kts 44°
2026-04-21 04:59 14.51308 121.01456 82 ft 10 kts 38°
2026-04-21 04:59 14.51365 121.01437 82 ft 9 kts 313°
2026-04-21 04:59 14.51423 121.01376 82 ft 12 kts 315°
2026-04-21 05:00 14.51497 121.01299 82 ft 15 kts 315°
2026-04-21 05:00 14.51589 121.01205 82 ft 17 kts 315°
2026-04-21 05:00 14.51802 121.00985 82 ft 22 kts 314°
2026-04-21 05:01 14.51926 121.00857 82 ft 23 kts 314°
2026-04-21 05:01 14.52057 121.00721 82 ft 24 kts 315°
2026-04-21 05:01 14.52191 121.00584 82 ft 24 kts 316°
2026-04-21 05:01 14.52303 121.00460 82 ft 16 kts 301°
2026-04-21 05:02 14.52371 121.00399 82 ft 10 kts 352°
2026-04-21 05:02 14.52395 121.00391 82 ft 1 kts 244°
2026-04-21 05:02 14.52377 121.00395 82 ft 4 kts 153°
2026-04-21 05:02 14.52346 121.00423 82 ft 6 kts 134°
2026-04-21 05:03 14.52333 121.00437 82 ft 0 kts 135°
2026-04-21 05:04 14.52332 121.00439 82 ft 0 kts 135°
2026-04-21 05:04 14.52282 121.00490 82 ft 37 kts 136°
2026-04-21 05:04 14.51864 121.00921 82 ft 114 kts 133°
2026-04-21 05:04 14.51094 121.01711 308 ft 151 kts 133°
2026-04-21 05:05 14.50270 121.02525 1024 ft 147 kts 136°
2026-04-21 05:05 14.49544 121.03271 1661 ft 145 kts 132°
2026-04-21 05:05 14.48776 121.04076 2148 ft 156 kts 131°
2026-04-21 05:05 14.47971 121.04926 2515 ft 171 kts 132°
2026-04-21 05:06 14.47391 121.05535 2687 ft 183 kts 132°
2026-04-21 05:06 14.46119 121.06862 3159 ft 203 kts 132°
2026-04-21 05:06 14.45045 121.07981 3433 ft 226 kts 132°
2026-04-21 05:06 14.43909 121.09209 3829 ft 243 kts 126°
2026-04-21 05:07 14.43077 121.10786 4253 ft 258 kts 107°
2026-04-21 05:07 14.42678 121.12614 4905 ft 264 kts 99°
2026-04-21 05:07 14.42355 121.14464 5654 ft 266 kts 99°
2026-04-21 05:07 14.42028 121.16350 6422 ft 269 kts 99°
2026-04-21 05:08 14.41692 121.18246 7180 ft 272 kts 99°
2026-04-21 05:08 14.41349 121.20152 7927 ft 275 kts 99°
2026-04-21 05:08 14.40968 121.22087 8673 ft 279 kts 104°
2026-04-21 05:08 14.40226 121.23942 9385 ft 284 kts 118°
2026-04-21 05:09 14.39087 121.25628 10078 ft 289 kts 126°
2026-04-21 05:09 14.37821 121.27267 10589 ft 300 kts 127°
2026-04-21 05:09 14.36462 121.29000 10929 ft 317 kts 127°
2026-04-21 05:09 14.35009 121.30865 11231 ft 335 kts 127°
2026-04-21 05:10 14.33527 121.32774 11492 ft 350 kts 126°
2026-04-21 05:10 14.31969 121.34789 11758 ft 365 kts 127°
2026-04-21 05:10 14.30349 121.36890 12015 ft 379 kts 126°
2026-04-21 05:10 14.28709 121.39017 12462 ft 385 kts 127°
2026-04-21 05:11 14.27027 121.41198 13004 ft 388 kts 127°
2026-04-21 05:11 14.25353 121.43370 13493 ft 391 kts 127°
2026-04-21 05:11 14.23650 121.45581 13981 ft 394 kts 127°
2026-04-21 05:11 14.21940 121.47800 14425 ft 398 kts 127°
2026-04-21 05:12 14.20213 121.50040 14838 ft 401 kts 127°
2026-04-21 05:12 14.18475 121.52293 15281 ft 403 kts 127°
2026-04-21 05:12 14.16717 121.54570 15667 ft 406 kts 128°
2026-04-21 05:12 14.14968 121.56836 16046 ft 409 kts 128°
2026-04-21 05:13 14.13191 121.59137 16407 ft 411 kts 128°
2026-04-21 05:13 14.11426 121.61488 16755 ft 414 kts 124°
2026-04-21 05:13 14.10019 121.64095 17083 ft 417 kts 113°
2026-04-21 05:13 14.09097 121.67019 17437 ft 419 kts 102°
2026-04-21 05:14 14.08597 121.70108 17793 ft 422 kts 98°
2026-04-21 05:14 14.08193 121.73126 18094 ft 424 kts 98°
2026-04-21 05:14 14.07795 121.76132 18423 ft 426 kts 98°
2026-04-21 05:14 14.07378 121.79185 18735 ft 428 kts 98°
2026-04-21 05:15 14.06949 121.82240 19033 ft 430 kts 99°
2026-04-21 05:15 14.06518 121.85264 19330 ft 432 kts 99°
2026-04-21 05:15 14.06071 121.88375 19642 ft 434 kts 99°
2026-04-21 05:15 14.05756 121.90408 19829 ft 435 kts 101°
2026-04-21 05:16 14.04723 121.94445 20205 ft 437 kts 109°
2026-04-21 05:16 14.03579 121.97360 20489 ft 438 kts 116°
2026-04-21 05:16 14.02209 122.00192 20771 ft 439 kts 117°
2026-04-21 05:16 14.00789 122.03008 21038 ft 441 kts 118°
2026-04-21 05:17 13.99338 122.05868 21302 ft 443 kts 118°
2026-04-21 05:17 13.97916 122.08688 21555 ft 445 kts 118°
2026-04-21 05:17 13.96490 122.11526 21802 ft 446 kts 118°
2026-04-21 05:17 13.95072 122.14359 22030 ft 448 kts 118°
2026-04-21 05:18 13.93646 122.17208 22257 ft 450 kts 118°
2026-04-21 05:18 13.92208 122.20081 22479 ft 452 kts 118°
2026-04-21 05:18 13.90754 122.22986 22710 ft 454 kts 118°
2026-04-21 05:18 13.89252 122.25983 22902 ft 455 kts 118°
2026-04-21 05:19 13.87796 122.28887 22907 ft 454 kts 118°
2026-04-21 05:19 13.86352 122.31768 22910 ft 454 kts 118°
2026-04-21 05:19 13.84881 122.34700 22915 ft 454 kts 118°
2026-04-21 05:19 13.83449 122.37554 22914 ft 454 kts 118°
2026-04-21 05:20 13.82000 122.40440 22913 ft 454 kts 118°
2026-04-21 05:20 13.80528 122.43374 22914 ft 455 kts 118°
2026-04-21 05:20 13.79057 122.46304 22912 ft 455 kts 118°
2026-04-21 05:20 13.77615 122.49176 22909 ft 455 kts 118°
2026-04-21 05:21 13.76158 122.52072 22911 ft 455 kts 118°
2026-04-21 05:21 13.74698 122.54960 22909 ft 455 kts 119°
2026-04-21 05:21 13.73116 122.57800 22907 ft 455 kts 122°
2026-04-21 05:21 13.71395 122.60530 22905 ft 455 kts 125°
2026-04-21 05:22 13.69563 122.63135 22823 ft 451 kts 127°
2026-04-21 05:22 13.67701 122.65706 22171 ft 450 kts 128°
2026-04-21 05:22 13.65807 122.68308 21094 ft 455 kts 128°
2026-04-21 05:22 13.63939 122.70871 20286 ft 453 kts 128°
2026-04-21 05:23 13.62047 122.73474 19649 ft 446 kts 127°
2026-04-21 05:23 13.60223 122.75983 19060 ft 440 kts 127°
2026-04-21 05:23 13.58408 122.78481 18465 ft 434 kts 127°
2026-04-21 05:23 13.56610 122.80956 17871 ft 428 kts 127°
2026-04-21 05:24 13.54835 122.83401 17295 ft 423 kts 127°
2026-04-21 05:24 13.53091 122.85799 16727 ft 418 kts 127°
2026-04-21 05:24 13.51365 122.88173 16162 ft 413 kts 127°
2026-04-21 05:24 13.49650 122.90528 15578 ft 410 kts 126°
2026-04-21 05:25 13.47956 122.92855 14993 ft 406 kts 126°
2026-04-21 05:25 13.46267 122.95177 14417 ft 403 kts 126°
2026-04-21 05:25 13.44603 122.97466 13875 ft 398 kts 126°
2026-04-21 05:25 13.42959 122.99727 13346 ft 393 kts 126°
2026-04-21 05:26 13.41336 123.01956 12806 ft 388 kts 126°
2026-04-21 05:26 13.39711 123.04190 12251 ft 384 kts 125°
2026-04-21 05:26 13.38129 123.06362 11704 ft 380 kts 125°
2026-04-21 05:26 13.36549 123.08526 11302 ft 369 kts 125°
2026-04-21 05:27 13.35033 123.10598 11060 ft 355 kts 126°
2026-04-21 05:27 13.33556 123.12616 10859 ft 341 kts 125°
2026-04-21 05:27 13.32141 123.14549 10659 ft 327 kts 125°
2026-04-21 05:27 13.30798 123.16383 10470 ft 315 kts 125°
2026-04-21 05:28 13.29487 123.18173 10304 ft 299 kts 125°
2026-04-21 05:28 13.28260 123.19846 10156 ft 283 kts 125°
2026-04-21 05:28 13.27050 123.21397 10029 ft 277 kts 129°
2026-04-21 05:28 13.25722 123.22862 9715 ft 277 kts 131°
2026-04-21 05:29 13.24372 123.24286 9348 ft 277 kts 132°
2026-04-21 05:29 13.23015 123.25711 8999 ft 275 kts 132°
2026-04-21 05:29 13.21686 123.27106 8670 ft 273 kts 132°
2026-04-21 05:29 13.20369 123.28493 8346 ft 271 kts 132°
2026-04-21 05:30 13.19062 123.29869 8025 ft 268 kts 131°
2026-04-21 05:30 13.17760 123.31239 7701 ft 267 kts 131°
2026-04-21 05:30 13.16465 123.32603 7374 ft 265 kts 131°
2026-04-21 05:30 13.15189 123.33947 7053 ft 264 kts 131°
2026-04-21 05:31 13.13912 123.35291 6732 ft 262 kts 131°
2026-04-21 05:31 13.12628 123.36642 6409 ft 260 kts 131°
2026-04-21 05:31 13.11367 123.37968 6093 ft 259 kts 131°
2026-04-21 05:31 13.10123 123.39277 5781 ft 257 kts 131°
2026-04-21 05:32 13.08879 123.40585 5473 ft 256 kts 131°
2026-04-21 05:32 13.07634 123.41898 5165 ft 254 kts 131°
2026-04-21 05:32 13.06401 123.43194 4855 ft 253 kts 131°
2026-04-21 05:32 13.05178 123.44481 4548 ft 252 kts 131°
2026-04-21 05:33 13.03958 123.45764 4240 ft 251 kts 131°
2026-04-21 05:33 13.02737 123.47048 3928 ft 249 kts 131°
2026-04-21 05:33 13.01520 123.48325 3619 ft 248 kts 131°
2026-04-21 05:33 13.00321 123.49586 3339 ft 244 kts 131°
2026-04-21 05:34 12.99183 123.50781 3304 ft 227 kts 129°
2026-04-21 05:34 12.98412 123.52090 3215 ft 209 kts 98°
2026-04-21 05:34 12.98518 123.53500 3165 ft 194 kts 68°
2026-04-21 05:34 12.99267 123.54638 3129 ft 192 kts 49°
2026-04-21 05:35 13.00187 123.55619 3066 ft 191 kts 48°
2026-04-21 05:35 13.01109 123.56605 2952 ft 190 kts 49°
2026-04-21 05:35 13.01988 123.57555 2909 ft 178 kts 49°
2026-04-21 05:35 13.02816 123.58459 2732 ft 169 kts 50°
2026-04-21 05:36 13.03615 123.59336 2448 ft 164 kts 50°
2026-04-21 05:36 13.04365 123.60162 2193 ft 154 kts 50°
2026-04-21 05:36 13.05068 123.60936 2005 ft 142 kts 51°
2026-04-21 05:36 13.05726 123.61662 1806 ft 137 kts 51°
2026-04-21 05:37 13.06375 123.62380 1626 ft 136 kts 50°
2026-04-21 05:37 13.07022 123.63095 1447 ft 136 kts 50°
2026-04-21 05:37 13.07681 123.63789 1261 ft 136 kts 49°
2026-04-21 05:37 13.08318 123.64496 1088 ft 135 kts 50°
2026-04-21 05:38 13.08950 123.65219 916 ft 135 kts 50°
2026-04-21 05:38 13.09588 123.65910 706 ft 135 kts 49°
2026-04-21 05:38 13.10226 123.66619 478 ft 131 kts 50°
2026-04-21 05:38 13.10838 123.67290 344 ft 128 kts 49°
2026-04-21 05:39 13.11388 123.67899 327 ft 94 kts 47°
2026-04-21 05:39 13.11719 123.68263 328 ft 45 kts 47°
2026-04-21 05:39 13.11848 123.68384 328 ft 11 kts 47°
2026-04-21 05:39 13.11869 123.68439 328 ft 3 kts 83°
2026-04-21 05:40 13.11871 123.68443 328 ft 0 kts 33°
2026-04-21 05:40 13.11872 123.68443 328 ft 0 kts 18°
2026-04-21 05:40 13.11875 123.68442 328 ft 0 kts 347°
2026-04-21 05:40 13.11876 123.68439 328 ft 0 kts 289°
2026-04-21 05:41 13.11869 123.68428 328 ft 3 kts 230°
2026-04-21 05:41 13.11842 123.68399 328 ft 7 kts 227°
2026-04-21 05:41 13.11799 123.68352 328 ft 10 kts 227°
2026-04-21 05:41 13.11740 123.68288 328 ft 13 kts 226°
2026-04-21 05:42 13.11669 123.68208 328 ft 16 kts 227°
2026-04-21 05:42 13.11586 123.68117 328 ft 18 kts 226°
2026-04-21 05:42 13.11506 123.68031 328 ft 10 kts 214°
2026-04-21 05:42 13.11455 123.68042 328 ft 8 kts 137°
2026-04-21 05:43 13.11410 123.68086 327 ft 9 kts 136°
2026-04-21 05:43 13.11356 123.68098 328 ft 8 kts 213°
2026-04-21 05:43 13.11317 123.68055 327 ft 4 kts 229°
2026-04-21 05:43 13.11294 123.68051 327 ft 3 kts 154°
2026-04-21 05:44 13.11275 123.68067 327 ft 3 kts 136°
2026-04-21 05:44 13.11256 123.68085 327 ft 3 kts 136°
2026-04-21 05:44 13.11244 123.68097 327 ft 1 kts 136°
2026-04-21 05:44 13.11239 123.68102 327 ft 1 kts 137°
2026-04-21 05:45 13.11238 123.68103 327 ft 0 kts 137°